Weather History for KFGN - June, 2013

Change the Weather History Date:

Saturday, June 8, 2013

  Actual Average Record
Temperature  
Mean Temperature 63 °F -  
Max Temperature 71 °F 63 °F 73 °F (1999)
Min Temperature 55 °F 50 °F 46 °F (2007)
Degree Days  
Heating Degree Days 2    
Growing Degree Days 13 (Base 50)    
Moisture  
Dew Point 49 °F    
Average Humidity 62    
Maximum Humidity 82    
Minimum Humidity 38    
Precipitation  
Precipitation 0.00 in - - ()
Sea Level Pressure  
Sea Level Pressure 29.91 in    
Wind  
Wind Speed 4 mph (SE)    
Max Wind Speed 9 mph    
Max Gust Speed -    
Visibility 10 miles    
Events      
Averages and records for this station are not official NWS values.
T = Trace of Precipitation, MM = Missing Value Source: NWS Daily Summary

Daily Weather History Graph

Daily Weather History Graph

Search for Another Location

Airport or City:

Trip Planner

Search our weather history database for the weather conditions in past years. The results will help you decide how hot, cold, wet, or windy it might be!

Date:

Astronomy

Jun. 08, 2013 Rise Set
Actual Time 5:14 AM CDT 9:23 PM CDT
Civil Twilight 4:32 AM CDT 10:05 PM CDT
Nautical Twilight 3:31 AM CDT 11:06 PM CDT
Astronomical Twilight 1:51 AM CDT 12:46 AM CDT
Moon 5:28 AM CDT (6/8) 9:20 PM CDT (6/8)
Length of Visible Light 17h 33m
Length of Day
16h 08m
New Moon, 0% of the Moon is Illuminated
Jun 8
New Moon
Jun 16
First Quarter
Jun 23
Full
Jun 29
Last Quarter
Jul 8
New

Hourly Weather History & Observations

Time (CDT) Temp. Dew Point Humidity Pressure Visibility Wind Dir Wind Speed Gust Speed Precip Events Conditions
12:14 AM 59.0 °F 51.8 °F 77% 29.90 in 10.0 mi Calm Calm - N/A   Clear
12:33 AM 57.2 °F 51.8 °F 82% 29.90 in 10.0 mi ESE 4.6 mph - N/A   Clear
12:53 AM 57.2 °F 50.0 °F 77% 29.90 in 10.0 mi ESE 3.5 mph - N/A   Clear
1:13 AM 57.2 °F 50.0 °F 77% 29.90 in 10.0 mi SE 9.2 mph - N/A   Clear
1:33 AM 57.2 °F 50.0 °F 77% 29.90 in 10.0 mi SE 3.5 mph - N/A   Clear
1:54 AM 57.2 °F 50.0 °F 77% 29.90 in 10.0 mi SE 4.6 mph - N/A   Clear
2:13 AM 57.2 °F 50.0 °F 77% 29.90 in 10.0 mi SE 4.6 mph - N/A   Clear
2:33 AM 57.2 °F 48.2 °F 72% 29.90 in 10.0 mi SE 6.9 mph - N/A   Clear
2:54 AM 57.2 °F 50.0 °F 77% 29.90 in 10.0 mi SSE 5.8 mph - N/A   Clear
3:13 AM 57.2 °F 50.0 °F 77% 29.90 in 10.0 mi SSE 5.8 mph - N/A   Clear
3:33 AM 57.2 °F 51.8 °F 82% 29.90 in 10.0 mi SE 3.5 mph - N/A   Clear
3:54 AM 55.4 °F 50.0 °F 82% 29.90 in 10.0 mi Calm Calm - N/A   Clear
4:13 AM 55.4 °F 50.0 °F 82% 29.90 in 10.0 mi Calm Calm - N/A   Clear
4:33 AM 55.4 °F 50.0 °F 82% 29.90 in 10.0 mi Calm Calm - N/A   Clear
4:53 AM 55.4 °F 50.0 °F 82% 29.90 in 10.0 mi ESE 5.8 mph - N/A   Clear
5:13 AM 55.4 °F 48.2 °F 77% 29.90 in 10.0 mi ESE 4.6 mph - N/A   Clear
5:34 AM 55.4 °F 50.0 °F 82% 29.90 in 10.0 mi ESE 6.9 mph - N/A   Clear
5:54 AM 55.4 °F 50.0 °F 82% 29.90 in 10.0 mi ESE 8.1 mph - N/A   Clear
6:13 AM 55.4 °F 50.0 °F 82% 29.91 in 10.0 mi ESE 5.8 mph - N/A   Clear
6:34 AM 55.4 °F 50.0 °F 82% 29.91 in 10.0 mi ESE 6.9 mph - N/A   Clear
6:54 AM 55.4 °F 50.0 °F 82% 29.92 in 10.0 mi ESE 5.8 mph - N/A   Clear
7:13 AM 57.2 °F 51.8 °F 82% 29.92 in 10.0 mi SE 6.9 mph - N/A   Clear
7:34 AM 57.2 °F 51.8 °F 82% 29.93 in 10.0 mi SE 6.9 mph - N/A   Clear
7:54 AM 57.2 °F 51.8 °F 82% 29.93 in 10.0 mi SE 6.9 mph - N/A   Clear
8:13 AM 57.2 °F 50.0 °F 77% 29.94 in 10.0 mi SSE 8.1 mph - N/A   Clear
8:34 AM 57.2 °F 50.0 °F 77% 29.94 in 10.0 mi SE 5.8 mph - N/A   Clear
8:54 AM 57.2 °F 50.0 °F 77% 29.94 in 10.0 mi SSE 6.9 mph - N/A   Clear
9:13 AM 59.0 °F 50.0 °F 72% 29.94 in 10.0 mi SSE 6.9 mph - N/A   Clear
9:34 AM 59.0 °F 51.8 °F 77% 29.94 in 10.0 mi South 4.6 mph - N/A   Clear
9:54 AM 60.8 °F 51.8 °F 72% 29.93 in 10.0 mi South 3.5 mph - N/A   Clear
10:13 AM 60.8 °F 51.8 °F 72% 29.93 in 10.0 mi South 3.5 mph - N/A   Clear
10:34 AM 60.8 °F 51.8 °F 72% 29.92 in 10.0 mi Calm Calm - N/A   Clear
10:53 AM 62.6 °F 51.8 °F 68% 29.92 in 10.0 mi Calm Calm - N/A   Clear
11:13 AM 60.8 °F 50.0 °F 68% 29.92 in 10.0 mi Calm Calm - N/A   Clear
11:34 AM 62.6 °F 48.2 °F 59% 29.92 in 10.0 mi SSE 5.8 mph - N/A   Clear
11:53 AM 62.6 °F 46.4 °F 55% 29.92 in 10.0 mi SSE 6.9 mph - N/A   Clear
12:13 PM 64.4 °F 48.2 °F 56% 29.93 in 10.0 mi South 4.6 mph - N/A   Clear
12:34 PM 66.2 °F 48.2 °F 52% 29.92 in 10.0 mi Calm Calm - N/A   Clear
12:53 PM 66.2 °F 48.2 °F 52% 29.91 in 10.0 mi South 4.6 mph - N/A   Clear
1:13 PM 66.2 °F 48.2 °F 52% 29.91 in 10.0 mi SSE 5.8 mph - N/A   Clear
1:34 PM 66.2 °F 48.2 °F 52% 29.91 in 10.0 mi SSW 3.5 mph - N/A   Clear
1:53 PM 69.8 °F 46.4 °F 43% 29.91 in 10.0 mi Calm Calm - N/A   Clear
2:13 PM 69.8 °F 44.6 °F 40% 29.91 in 10.0 mi South 4.6 mph - N/A   Clear
2:34 PM 69.8 °F 46.4 °F 43% 29.90 in 10.0 mi South 4.6 mph - N/A   Clear
2:53 PM 69.8 °F 46.4 °F 43% 29.90 in 10.0 mi South 3.5 mph - N/A   Clear
3:13 PM 71.6 °F 46.4 °F 41% 29.90 in 10.0 mi South 4.6 mph - N/A   Clear
3:34 PM 69.8 °F 48.2 °F 46% 29.90 in 10.0 mi South 3.5 mph - N/A   Scattered Clouds
3:53 PM 69.8 °F 46.4 °F 43% 29.90 in 10.0 mi South 3.5 mph - N/A   Mostly Cloudy
4:13 PM 69.8 °F 44.6 °F 40% 29.89 in 10.0 mi SE 3.5 mph - N/A   Scattered Clouds
4:33 PM 69.8 °F 46.4 °F 43% 29.89 in 10.0 mi Calm Calm - N/A   Mostly Cloudy
4:53 PM 71.6 °F 44.6 °F 38% 29.89 in 10.0 mi Calm Calm - N/A   Scattered Clouds
5:14 PM 71.6 °F 44.6 °F 38% 29.89 in 10.0 mi SSE 3.5 mph - N/A   Clear
5:33 PM 69.8 °F 46.4 °F 43% 29.89 in 10.0 mi South 4.6 mph - N/A   Clear
5:54 PM 69.8 °F 46.4 °F 43% 29.89 in 10.0 mi SSE 3.5 mph - N/A   Clear
6:14 PM 69.8 °F 48.2 °F 46% 29.89 in 10.0 mi South 3.5 mph - N/A   Clear
6:33 PM 69.8 °F 48.2 °F 46% 29.89 in 10.0 mi Calm Calm - N/A   Clear
6:54 PM 71.6 °F 44.6 °F 38% 29.88 in 10.0 mi SSE 3.5 mph - N/A   Clear
7:14 PM 69.8 °F 46.4 °F 43% 29.88 in 10.0 mi Calm Calm - N/A   Clear
7:33 PM 69.8 °F 48.2 °F 46% 29.88 in 10.0 mi Calm Calm - N/A   Clear
7:54 PM 69.8 °F 46.4 °F 43% 29.88 in 10.0 mi Calm Calm - N/A   Clear
8:14 PM 69.8 °F 46.4 °F 43% 29.89 in 10.0 mi Calm Calm - N/A   Clear
8:33 PM 69.8 °F 48.2 °F 46% 29.89 in 10.0 mi Calm Calm - N/A   Clear
8:53 PM 68.0 °F 48.2 °F 49% 29.89 in 10.0 mi Calm Calm - N/A   Scattered Clouds
9:14 PM 66.2 °F 48.2 °F 52% 29.90 in 10.0 mi East 3.5 mph - N/A   Scattered Clouds
9:33 PM 66.2 °F 50.0 °F 56% 29.90 in 10.0 mi East 3.5 mph - N/A   Scattered Clouds
9:54 PM 66.2 °F 50.0 °F 56% 29.90 in 10.0 mi East 3.5 mph - N/A   Mostly Cloudy
10:14 PM 66.2 °F 50.0 °F 56% 29.91 in 10.0 mi ESE 3.5 mph - N/A   Scattered Clouds
10:33 PM 66.2 °F 50.0 °F 56% 29.91 in 10.0 mi East 3.5 mph - N/A   Clear
10:53 PM 64.4 °F 50.0 °F 59% 29.91 in 10.0 mi East 4.6 mph - N/A   Clear
11:14 PM 64.4 °F 50.0 °F 59% 29.91 in 10.0 mi ESE 4.6 mph - N/A   Clear
11:33 PM 64.4 °F 50.0 °F 59% 29.91 in 10.0 mi ESE 4.6 mph - N/A   Clear
11:53 PM 64.4 °F 51.8 °F 64% 29.91 in 10.0 mi ESE 3.5 mph - N/A   Clear